Location: Killam
(52.7910°N, 111.8608°W)
Time: 16:55:05
(UTC+00:00)

Vanguard 2 Rocket - Pass Details

Date: 23 February 2026
Orbit: 553 x 3286 km, 32.9° (Epoch: 11 March)

Event Time Altitude Azimuth Distance (km) Brightness Sun altitude
Rises 16:28:37 0° 198° (SSW) 6,883 11.7 15.4°
Reaches altitude 10° 16:34:53 10° 185° (S) 6,104 11.7 16.1°
Maximum altitude 16:47:24 21° 145° (SE) 5,284 13.2 17.5°
Drops below altitude 10° 16:59:17 10° 105° (ESE) 5,820 12.1 18.7°
Sets 17:04:56 0° 92° (E) 6,496 11.9 19.3°
